Flag for Canada Weather past 2 weeks in Chilliwack, British Columbia, Canada

Now
72 °F

Mild.


Feels Like: 77 °F
Forecast: 61 / 90 °F
Wind: 2 mph from Southwest

Location: Agassiz

Current Time: Jul 3, 2015 at 9:40:10 AM

Latest Report: Jul 3, 2015 at 9:00 AM


Visibility: N/A

Pressure: 29.95 "Hg

Humidity: 54%

Dew point: 55 °F

Location of ChilliwackLocation

Historic Weather in Chilliwack — Graph

°F

Chilliwack temperature yesterday

Maximum temperature yesterday: 92 °F (at 5:00 PM)
Minimum temperature yesterday: 62 °F (at 6:00 AM)
Average temperature yesterday: 77 °F

Past Weeks' High & Low Weather Summary

 TemperatureHumidityPressure
High92 °F (Jul 1, 3:00 PM)97% (Jun 23, 4:00 AM)30.15 "Hg (Jun 23, 4:00 AM)
Low48 °F (Jun 20, 5:00 AM)20% (Jul 1, 3:00 PM)29.85 "Hg (Jun 21, 4:00 PM)
Average70 °F60%30.01 "Hg
* Reported Jun 18 8:00 AM — Jul 3 8:00 AM, Chilliwack, Weather by CustomWeather, © 2015

Note: Actual official high and low records may vary slightly from our data, if they occured in-between our weather recording intervals... More about our weather records

Advertising

Chilliwack weather history for previous 24 hours

 ConditionsComfort  
Time TempWeatherWind HumidityBarometerVisibility
8:00 AM
Fri, Jul 3
69 °FMild.1 mph67%29.95 "HgN/A
7:00 AM60 °FCool.1 mph91%29.95 "HgN/A
6:00 AM59 °FCool.1 mph90%29.95 "HgN/A
5:00 AM60 °FCool.No wind86%29.95 "HgN/A
4:00 AM58 °FCool.No wind89%29.94 "HgN/A
3:00 AM65 °FMild.No wind72%29.93 "HgN/A
2:00 AM67 °FMild.1 mph69%29.94 "HgN/A
1:00 AM69 °FMild.3 mph66%29.93 "HgN/A
12:00 AM72 °FMild.2 mph62%29.93 "HgN/A
11:00 PM
Thu, Jul 2
74 °FMild.2 mph58%29.92 "HgN/A
10:00 PM73 °FMild.3 mph65%29.91 "HgN/A
9:00 PM79 °FWarm.No wind54%29.90 "HgN/A
8:00 PM87 °FPleasantly warm.3 mph37%29.90 "HgN/A
7:00 PM90 °FHot.5 mph31%29.90 "HgN/A
6:00 PM91 °FHot.8 mph31%29.91 "HgN/A
5:00 PM92 °FHot.6 mph31%29.92 "HgN/A
4:00 PM91 °FHot.8 mph35%29.93 "HgN/A
3:00 PM90 °FHot.8 mph36%29.94 "HgN/A
2:00 PM89 °FHot.7 mph36%29.95 "HgN/A
1:00 PM87 °FPleasantly warm.6 mph40%29.97 "HgN/A
12:00 PM84 °FPleasantly warm.6 mph40%29.98 "HgN/A
11:00 AM81 °FWarm.1 mph48%29.99 "HgN/A
10:00 AM77 °FWarm.2 mph54%30.01 "HgN/A
9:00 AM75 °FMild.1 mph61%30.01 "HgN/A
Weather by CustomWeather, © 2015

See weather overviewHow to use our weather pages